Orbital elements:
2012 KO1 Earth MOID = 0.0802 AU
Epoch 2012 Mar. 14.0 TT = JDT 2456000.5 MPC
M 351.74778 (2000.0) P Q
n 0.31692496 Peri. 133.90873 -0.97079659 +0.22650891
a 2.1305828 Node 59.33141 -0.23789539 -0.86637028
e 0.5044904 Incl. 5.27267 -0.03098002 -0.44508004
P 3.11 H 23.9 G 0.15 U 9